SAS0377 ENBR-ENAL

Flight info

Callsign SAS0377
Flight time 0h 42m
Altitude 25000
Route OLDAS DCT TUMIM
Aircraft B738/M-SDFGHIJ1RWXYZ/LB1

Departure

Time 2026-04-30 09:08
Airport Bergen Airport, Flesland (ENBR)

Arrival

Time 2026-04-30 09:51
Airport Ålesund Airport (ENAL)
Time Latitude Longitude Altitude Speed Heading
2026-04-30 08:19 60.28740 5.22898 175 ft 0 kts 81°
2026-04-30 08:54 60.28739 5.22874 175 ft 2 kts 80°
2026-04-30 08:54 60.28736 5.22841 174 ft 2 kts 79°
2026-04-30 08:54 60.28734 5.22826 174 ft 0 kts 79°
2026-04-30 08:56 60.28733 5.22841 174 ft 2 kts 104°
2026-04-30 08:57 60.28718 5.22855 174 ft 3 kts 180°
2026-04-30 08:57 60.28701 5.22800 173 ft 7 kts 254°
2026-04-30 08:57 60.28690 5.22694 171 ft 8 kts 256°
2026-04-30 08:57 60.28672 5.22582 171 ft 8 kts 257°
2026-04-30 08:58 60.28687 5.22481 171 ft 8 kts 336°
2026-04-30 08:58 60.28743 5.22460 173 ft 8 kts 352°
2026-04-30 08:58 60.28797 5.22444 174 ft 8 kts 351°
2026-04-30 08:58 60.28850 5.22425 174 ft 8 kts 347°
2026-04-30 08:59 60.28900 5.22403 174 ft 7 kts 349°
2026-04-30 08:59 60.28950 5.22388 174 ft 7 kts 352°
2026-04-30 08:59 60.28997 5.22374 175 ft 7 kts 351°
2026-04-30 08:59 60.29044 5.22359 175 ft 7 kts 351°
2026-04-30 09:00 60.29096 5.22343 177 ft 8 kts 351°
2026-04-30 09:00 60.29158 5.22322 177 ft 11 kts 351°
2026-04-30 09:00 60.29261 5.22286 171 ft 19 kts 350°
2026-04-30 09:00 60.29411 5.22232 161 ft 23 kts 350°
2026-04-30 09:01 60.29549 5.22186 152 ft 20 kts 351°
2026-04-30 09:01 60.29662 5.22150 149 ft 11 kts 350°
2026-04-30 09:01 60.29721 5.22120 148 ft 6 kts 324°
2026-04-30 09:01 60.29733 5.22029 147 ft 7 kts 289°
2026-04-30 09:02 60.29841 5.21966 151 ft 10 kts 350°
2026-04-30 09:02 60.29911 5.21942 153 ft 11 kts 351°
2026-04-30 09:02 60.29990 5.21918 157 ft 12 kts 351°
2026-04-30 09:03 60.30074 5.21889 160 ft 12 kts 349°
2026-04-30 09:03 60.30159 5.21860 164 ft 12 kts 351°
2026-04-30 09:03 60.30243 5.21834 167 ft 12 kts 350°
2026-04-30 09:03 60.30325 5.21805 171 ft 12 kts 350°
2026-04-30 09:04 60.30405 5.21779 175 ft 12 kts 351°
2026-04-30 09:04 60.30484 5.21750 178 ft 11 kts 351°
2026-04-30 09:04 60.30562 5.21726 182 ft 11 kts 352°
2026-04-30 09:04 60.30638 5.21694 182 ft 12 kts 332°
2026-04-30 09:05 60.30661 5.21585 179 ft 4 kts 264°
2026-04-30 09:05 60.30660 5.21582 179 ft 0 kts 264°
2026-04-30 09:05 60.30660 5.21575 179 ft 2 kts 264°
2026-04-30 09:05 60.30655 5.21520 177 ft 7 kts 258°
2026-04-30 09:06 60.30644 5.21435 177 ft 4 kts 253°
2026-04-30 09:06 60.30627 5.21390 177 ft 4 kts 193°
2026-04-30 09:06 60.30603 5.21393 177 ft 0 kts 172°
2026-04-30 09:07 60.30560 5.21407 176 ft 13 kts 171°
2026-04-30 09:07 60.30313 5.21490 170 ft 70 kts 171°
2026-04-30 09:08 60.29606 5.21727 146 ft 133 kts 171°
2026-04-30 09:08 60.28584 5.22063 367 ft 158 kts 172°
2026-04-30 09:08 60.27532 5.22370 1135 ft 154 kts 172°
2026-04-30 09:08 60.26457 5.22699 1767 ft 156 kts 173°
2026-04-30 09:09 60.25345 5.23033 2211 ft 173 kts 171°
2026-04-30 09:09 60.24063 5.23451 2468 ft 200 kts 171°
2026-04-30 09:09 60.22618 5.23935 2665 ft 222 kts 171°
2026-04-30 09:09 60.21039 5.24471 2932 ft 242 kts 171°
2026-04-30 09:10 60.19327 5.25057 3436 ft 254 kts 171°
2026-04-30 09:10 60.17600 5.25651 4173 ft 256 kts 171°
2026-04-30 09:10 60.15833 5.26259 4950 ft 259 kts 172°
2026-04-30 09:10 60.14047 5.26872 5669 ft 262 kts 172°
2026-04-30 09:11 60.12232 5.27292 6360 ft 264 kts 187°
2026-04-30 09:11 60.10526 5.26141 7096 ft 260 kts 216°
2026-04-30 09:11 60.09290 5.23557 7835 ft 259 kts 239°
2026-04-30 09:11 60.08657 5.20164 8562 ft 263 kts 257°
2026-04-30 09:12 60.08424 5.16516 9300 ft 268 kts 272°
2026-04-30 09:12 60.08949 5.12963 10056 ft 276 kts 297°
2026-04-30 09:12 60.10222 5.10042 10782 ft 287 kts 319°
2026-04-30 09:12 60.12104 5.08236 11014 ft 317 kts 341°
2026-04-30 09:13 60.14318 5.07150 11314 ft 336 kts 344°
2026-04-30 09:13 60.16629 5.06130 11909 ft 343 kts 345°
2026-04-30 09:13 60.18972 5.05093 12651 ft 347 kts 344°
2026-04-30 09:13 60.21332 5.04009 13414 ft 350 kts 344°
2026-04-30 09:14 60.23718 5.02881 14179 ft 354 kts 344°
2026-04-30 09:14 60.26099 5.01742 14860 ft 358 kts 343°
2026-04-30 09:14 60.28582 5.01005 15537 ft 367 kts 359°
2026-04-30 09:14 60.31143 5.01460 16285 ft 371 kts
2026-04-30 09:15 60.33725 5.02033 16988 ft 376 kts
2026-04-30 09:15 60.36342 5.02618 17676 ft 380 kts
2026-04-30 09:15 60.38986 5.03195 18369 ft 385 kts
2026-04-30 09:15 60.41667 5.03762 19005 ft 390 kts
2026-04-30 09:16 60.44373 5.04322 19636 ft 392 kts
2026-04-30 09:16 60.47096 5.04877 20303 ft 394 kts
2026-04-30 09:16 60.49829 5.05429 20961 ft 395 kts
2026-04-30 09:16 60.52528 5.05972 21691 ft 394 kts
2026-04-30 09:17 60.55245 5.06521 22561 ft 390 kts
2026-04-30 09:17 60.57926 5.07063 23445 ft 386 kts
2026-04-30 09:17 60.60585 5.07600 24215 ft 383 kts
2026-04-30 09:17 60.63249 5.08136 24623 ft 388 kts
2026-04-30 09:18 60.65947 5.08678 24850 ft 388 kts
2026-04-30 09:18 60.68645 5.09223 25102 ft 393 kts
2026-04-30 09:18 60.71402 5.09779 25354 ft 401 kts
2026-04-30 09:18 60.74121 5.10333 25457 ft 394 kts
2026-04-30 09:19 60.76815 5.10889 25450 ft 385 kts
2026-04-30 09:19 60.79463 5.11434 25457 ft 381 kts
2026-04-30 09:19 60.82097 5.11972 25464 ft 381 kts
2026-04-30 09:19 60.84739 5.12510 25476 ft 381 kts
2026-04-30 09:20 60.87384 5.13050 25475 ft 383 kts
2026-04-30 09:20 60.90033 5.13592 25466 ft 383 kts
2026-04-30 09:20 60.92691 5.14138 25469 ft 384 kts
2026-04-30 09:20 60.95348 5.14686 25478 ft 384 kts
2026-04-30 09:21 60.97972 5.15229 25470 ft 384 kts
2026-04-30 09:21 61.00637 5.15780 25458 ft 385 kts
2026-04-30 09:21 61.03297 5.16331 25457 ft 384 kts
2026-04-30 09:21 61.05952 5.16904 25450 ft 385 kts
2026-04-30 09:22 61.08526 5.18549 25454 ft 392 kts 24°
2026-04-30 09:22 61.10922 5.21247 25464 ft 393 kts 25°
2026-04-30 09:22 61.13307 5.24009 25464 ft 393 kts 26°
2026-04-30 09:22 61.15690 5.26781 25454 ft 393 kts 26°
2026-04-30 09:23 61.18037 5.29528 25465 ft 393 kts 26°
2026-04-30 09:23 61.20401 5.32369 25509 ft 392 kts 27°
2026-04-30 09:23 61.22753 5.35256 25515 ft 392 kts 26°
2026-04-30 09:23 61.25153 5.37986 25486 ft 394 kts 24°
2026-04-30 09:24 61.27581 5.40662 25462 ft 395 kts 24°
2026-04-30 09:24 61.29999 5.43330 25458 ft 396 kts 24°
2026-04-30 09:24 61.32425 5.46038 25443 ft 396 kts 24°
2026-04-30 09:24 61.34843 5.48771 25443 ft 396 kts 25°
2026-04-30 09:25 61.37257 5.51525 25451 ft 395 kts 25°
2026-04-30 09:25 61.39636 5.54256 25456 ft 395 kts 25°
2026-04-30 09:25 61.42043 5.57029 25460 ft 396 kts 25°
2026-04-30 09:25 61.44451 5.59812 25447 ft 396 kts 25°
2026-04-30 09:26 61.46860 5.62602 25429 ft 396 kts 25°
2026-04-30 09:26 61.49264 5.65391 25434 ft 394 kts 25°
2026-04-30 09:26 61.51659 5.68175 25429 ft 393 kts 25°
2026-04-30 09:26 61.54045 5.70954 25427 ft 391 kts 25°
2026-04-30 09:27 61.56420 5.73723 25424 ft 390 kts 25°
2026-04-30 09:27 61.58756 5.76451 25433 ft 389 kts 25°
2026-04-30 09:27 61.61114 5.79209 25435 ft 388 kts 25°
2026-04-30 09:27 61.63470 5.81970 25432 ft 386 kts 25°
2026-04-30 09:28 61.65809 5.84716 25194 ft 384 kts 25°
2026-04-30 09:28 61.68124 5.87440 24941 ft 379 kts 25°
2026-04-30 09:28 61.70424 5.90148 24583 ft 378 kts 25°
2026-04-30 09:28 61.72718 5.92840 24213 ft 375 kts 24°
2026-04-30 09:29 61.75050 5.95262 23805 ft 373 kts 20°
2026-04-30 09:29 61.77377 5.97462 23390 ft 371 kts 19°
2026-04-30 09:29 61.79756 5.99664 23029 ft 369 kts 19°
2026-04-30 09:29 61.82106 6.01852 22627 ft 369 kts 19°
2026-04-30 09:30 61.84445 6.04057 22240 ft 367 kts 19°
2026-04-30 09:30 61.86763 6.06266 21860 ft 365 kts 20°
2026-04-30 09:30 61.89037 6.08448 21508 ft 362 kts 20°
2026-04-30 09:30 61.91327 6.10655 21026 ft 362 kts 20°
2026-04-30 09:31 61.93634 6.12883 20461 ft 363 kts 20°
2026-04-30 09:31 61.95915 6.15092 20012 ft 359 kts 20°
2026-04-30 09:31 61.98173 6.17283 19653 ft 355 kts 20°
2026-04-30 09:31 62.00417 6.19462 19298 ft 354 kts 20°
2026-04-30 09:32 62.02660 6.21644 18794 ft 357 kts 20°
2026-04-30 09:32 62.04929 6.23859 18335 ft 357 kts 20°
2026-04-30 09:32 62.07171 6.26055 17901 ft 352 kts 20°
2026-04-30 09:32 62.09343 6.28190 17579 ft 346 kts 20°
2026-04-30 09:33 62.11524 6.30333 17212 ft 344 kts 20°
2026-04-30 09:33 62.13696 6.32469 16878 ft 343 kts 20°
2026-04-30 09:33 62.15858 6.34600 16519 ft 342 kts 20°
2026-04-30 09:33 62.18013 6.36726 16163 ft 340 kts 20°
2026-04-30 09:34 62.20155 6.38843 15825 ft 338 kts 20°
2026-04-30 09:34 62.22286 6.40954 15489 ft 336 kts 20°
2026-04-30 09:34 62.24402 6.43051 15167 ft 335 kts 20°
2026-04-30 09:34 62.26489 6.45124 14807 ft 335 kts 20°
2026-04-30 09:35 62.28600 6.47222 14475 ft 333 kts 20°
2026-04-30 09:35 62.30705 6.49316 14129 ft 334 kts 21°
2026-04-30 09:35 62.32812 6.51418 13740 ft 333 kts 21°
2026-04-30 09:35 62.34887 6.53491 13542 ft 320 kts 20°
2026-04-30 09:36 62.36868 6.55400 13437 ft 306 kts 20°
2026-04-30 09:36 62.38807 6.57219 12973 ft 304 kts 18°
2026-04-30 09:36 62.40751 6.59038 12463 ft 305 kts 19°
2026-04-30 09:36 62.42661 6.60839 12039 ft 302 kts 19°
2026-04-30 09:37 62.44578 6.62655 11592 ft 300 kts 19°
2026-04-30 09:37 62.46444 6.64669 11121 ft 303 kts 32°
2026-04-30 09:37 62.47877 6.68022 10654 ft 307 kts 59°
2026-04-30 09:37 62.48797 6.72172 10259 ft 305 kts 66°
2026-04-30 09:38 62.49615 6.76379 9774 ft 303 kts 67°
2026-04-30 09:38 62.50417 6.80572 9346 ft 300 kts 67°
2026-04-30 09:38 62.51207 6.84721 8927 ft 297 kts 67°
2026-04-30 09:38 62.51993 6.88829 8521 ft 294 kts 67°
2026-04-30 09:39 62.52776 6.92906 8069 ft 292 kts 67°
2026-04-30 09:39 62.53544 6.96887 7694 ft 289 kts 67°
2026-04-30 09:39 62.54318 7.00879 7357 ft 285 kts 67°
2026-04-30 09:39 62.55284 7.04566 7021 ft 281 kts 43°
2026-04-30 09:40 62.56952 7.06549 6835 ft 275 kts
2026-04-30 09:40 62.58805 7.06185 6592 ft 266 kts 332°
2026-04-30 09:40 62.60365 7.04152 6358 ft 259 kts 317°
2026-04-30 09:40 62.61626 7.01438 6084 ft 253 kts 301°
2026-04-30 09:41 62.62385 6.98143 6010 ft 235 kts 288°
2026-04-30 09:41 62.62962 6.94968 5888 ft 223 kts 287°
2026-04-30 09:41 62.63512 6.91912 5776 ft 211 kts 287°
2026-04-30 09:41 62.64028 6.89034 5669 ft 199 kts 286°
2026-04-30 09:42 62.64516 6.86309 5506 ft 190 kts 286°
2026-04-30 09:42 62.64993 6.83653 5244 ft 187 kts 286°
2026-04-30 09:42 62.65462 6.81040 4982 ft 185 kts 286°
2026-04-30 09:42 62.65929 6.78435 4727 ft 185 kts 286°
2026-04-30 09:43 62.66396 6.75834 4636 ft 184 kts 286°
2026-04-30 09:43 62.66854 6.73282 4634 ft 183 kts 285°
2026-04-30 09:43 62.67314 6.70717 4605 ft 181 kts 285°
2026-04-30 09:43 62.67747 6.68161 4605 ft 181 kts 277°
2026-04-30 09:44 62.67598 6.65596 4608 ft 169 kts 239°
2026-04-30 09:44 62.67074 6.63329 4584 ft 168 kts 254°
2026-04-30 09:44 62.66743 6.60891 4603 ft 171 kts 247°
2026-04-30 09:44 62.66292 6.58474 4615 ft 171 kts 244°
2026-04-30 09:45 62.65809 6.56139 4417 ft 167 kts 243°
2026-04-30 09:45 62.65333 6.53921 4209 ft 162 kts 242°
2026-04-30 09:45 62.64858 6.51731 4002 ft 159 kts 242°
2026-04-30 09:45 62.64384 6.49557 3812 ft 160 kts 242°
2026-04-30 09:46 62.63907 6.47370 3607 ft 160 kts 242°
2026-04-30 09:46 62.63427 6.45166 3380 ft 163 kts 242°
2026-04-30 09:46 62.62944 6.42945 3150 ft 163 kts 243°
2026-04-30 09:46 62.62461 6.40719 2934 ft 163 kts 243°
2026-04-30 09:47 62.61977 6.38491 2706 ft 164 kts 243°
2026-04-30 09:47 62.61496 6.36274 2474 ft 158 kts 243°
2026-04-30 09:47 62.61052 6.34221 2262 ft 147 kts 243°
2026-04-30 09:47 62.60634 6.32294 2099 ft 137 kts 243°
2026-04-30 09:48 62.60235 6.30451 1898 ft 133 kts 243°
2026-04-30 09:48 62.59840 6.28628 1718 ft 135 kts 244°
2026-04-30 09:48 62.59439 6.26774 1509 ft 136 kts 244°
2026-04-30 09:48 62.59039 6.24921 1329 ft 136 kts 245°
2026-04-30 09:49 62.58640 6.23069 1156 ft 137 kts 245°
2026-04-30 09:49 62.58235 6.21194 953 ft 136 kts 245°
2026-04-30 09:49 62.57840 6.19351 778 ft 134 kts 246°
2026-04-30 09:49 62.57440 6.17551 593 ft 135 kts 245°
2026-04-30 09:50 62.57056 6.15705 397 ft 134 kts 248°
2026-04-30 09:50 62.56659 6.13880 241 ft 133 kts 248°
2026-04-30 09:50 62.56266 6.12039 92 ft 133 kts 245°
2026-04-30 09:50 62.55919 6.10453 66 ft 90 kts 244°
2026-04-30 09:51 62.55744 6.09651 49 ft 28 kts 244°
2026-04-30 09:51 62.55692 6.09419 44 ft 16 kts 244°
2026-04-30 09:51 62.55640 6.09176 37 ft 17 kts 245°
2026-04-30 09:51 62.55625 6.09048 40 ft 7 kts 266°
2026-04-30 09:52 62.55596 6.09033 40 ft 6 kts 124°
2026-04-30 09:52 62.55611 6.09110 40 ft 6 kts 50°
2026-04-30 09:52 62.55639 6.09199 39 ft 9 kts 61°
2026-04-30 09:52 62.55677 6.09353 42 ft 13 kts 64°
2026-04-30 09:53 62.55716 6.09535 47 ft 15 kts 65°
2026-04-30 09:53 62.55763 6.09747 50 ft 16 kts 65°
2026-04-30 09:53 62.55813 6.09976 54 ft 18 kts 65°
2026-04-30 09:53 62.55867 6.10225 55 ft 19 kts 64°
2026-04-30 09:54 62.55926 6.10490 62 ft 19 kts 64°
2026-04-30 09:54 62.55945 6.10737 73 ft 16 kts 108°
2026-04-30 09:54 62.55915 6.10959 78 ft 15 kts 104°
2026-04-30 09:54 62.55901 6.11133 70 ft 8 kts 80°
2026-04-30 09:55 62.55917 6.11223 75 ft 3 kts 70°
2026-04-30 09:55 62.55907 6.11263 74 ft 3 kts 137°
2026-04-30 09:55 62.55889 6.11289 75 ft 2 kts 152°
2026-04-30 09:55 62.55878 6.11301 78 ft 1 kts 154°